Flag for Denmark Weather past 2 weeks in Aalborg, Denmark

45 °F

Light rain. Passing clouds.

Feels Like: 37 °F
Forecast: 42 / 45 °F
Wind: 16 mph from Northwest

Location: Aalborg Airport

Current Time: Nov 29, 2015 at 9:14:36 PM

Latest Report: Nov 29, 2015 at 8:20 PM

Visibility: 4 mi

Pressure: 28.68 "Hg

Humidity: 87%

Dew point: 41 °F

Location of AalborgLocation

Historic Weather in Aalborg — Graph


Aalborg temperature yesterday

Maximum temperature yesterday: 46 °F (at 12:50 AM)
Minimum temperature yesterday: 37 °F (at 7:50 PM)
Average temperature yesterday: 43 °F

Past Weeks' High & Low Weather Summary

High54 °F (Nov 16, 10:57 AM)100% (Nov 16, 8:50 AM)30.01 "Hg (Nov 16, 8:50 AM)
Low23 °F (Nov 23, 3:01 AM)70% (Nov 21, 1:50 PM)28.71 "Hg (Nov 29, 7:50 PM)
Average41 °F89%29.54 "Hg
* Reported Nov 14 7:20 PM — Nov 29 7:50 PM, Aalborg, Weather by CustomWeather, © 2015

Note: Actual official high and low records may vary slightly from our data, if they occured in-between our weather recording intervals... More about our weather records


Aalborg weather history for previous 24 hours

Time TempWeatherWind HumidityBarometerVisibility
7:50 PM
Sun, Nov 29
48 °FLight rain. Passing clouds.16 mph87%28.71 "Hg4 mi
7:20 PM46 °FLight rain. Passing clouds.14 mph93%28.74 "Hg6 mi
6:53 PM45 °FRain. Partly cloudy.16 mph93%28.80 "Hg1 mi
6:20 PM43 °FRain. Partly cloudy.20 mph93%28.85 "Hg2 mi
5:50 PM43 °FRain. Partly cloudy.14 mph93%28.94 "Hg2 mi
5:20 PM43 °FSprinkles. Partly cloudy.10 mph93%29.03 "Hg2 mi
4:50 PM43 °FSprinkles. Partly cloudy.14 mph93%29.06 "Hg4 mi
4:20 PM41 °FPartly cloudy.10 mph93%29.12 "HgN/A
3:50 PM41 °FPartly cloudy.6 mph93%29.15 "HgN/A
3:20 PM41 °FBroken clouds.15 mph93%29.18 "HgN/A
2:59 PM43 °FSprinkles. Partly sunny.15 mph87%29.21 "Hg4 mi
2:20 PM43 °FSprinkles. Partly sunny.18 mph87%29.21 "HgN/A
1:50 PM43 °FPartly sunny.18 mph81%29.21 "HgN/A
1:20 PM43 °FScattered clouds.21 mph81%29.21 "HgN/A
12:50 PM45 °FScattered clouds.23 mph76%29.21 "HgN/A
12:20 PM43 °FScattered clouds.12 mph87%29.21 "HgN/A
11:50 AM43 °FScattered clouds.8 mph81%29.24 "HgN/A
11:20 AM41 °FScattered clouds.15 mph81%29.24 "HgN/A
10:50 AM43 °FSprinkles. Broken clouds.26 mph76%29.24 "HgN/A
10:20 AM43 °FBroken clouds.23 mph81%29.21 "HgN/A
9:50 AM43 °FPartly sunny.23 mph76%29.21 "HgN/A
9:20 AM41 °FPartly sunny.16 mph87%29.21 "HgN/A
8:50 AM41 °FScattered clouds.16 mph81%29.21 "HgN/A
7:50 AM41 °FPartly cloudy.14 mph87%29.21 "HgN/A
7:20 AM41 °FPassing clouds.16 mph81%29.21 "HgN/A
6:50 AM43 °FSprinkles. Passing clouds.20 mph81%29.21 "HgN/A
6:20 AM43 °FSnow showers. Partly cloudy.17 mph81%29.18 "Hg5 mi
5:20 AM43 °FPassing clouds.17 mph93%29.18 "HgN/A
4:50 AM43 °FPartly cloudy.15 mph87%29.18 "Hg5 mi
4:20 AM43 °FPassing clouds.15 mph87%29.18 "HgN/A
3:50 AM43 °FPartly cloudy.15 mph93%29.18 "HgN/A
3:20 AM43 °FHeavy rain. Passing clouds.23 mph93%29.21 "Hg3 mi
2:50 AM43 °FLight rain. Passing clouds.20 mph87%29.21 "Hg6 mi
2:20 AM43 °FRain. Passing clouds.22 mph87%29.24 "Hg4 mi
1:50 AM43 °FRain. Passing clouds.26 mph87%29.24 "Hg5 mi
12:50 AM43 °FRain. Passing clouds.22 mph93%29.27 "Hg3 mi
12:20 AM43 °FPartly cloudy.22 mph87%29.30 "HgN/A
11:50 PM
Sat, Nov 28
43 °FPartly cloudy.22 mph81%29.30 "HgN/A
11:20 PM41 °FPassing clouds.17 mph87%29.33 "HgN/A
10:50 PM41 °FPartly cloudy.15 mph87%29.36 "HgN/A
10:20 PM41 °FPartly cloudy.16 mph87%29.39 "HgN/A
9:20 PM39 °FPassing clouds.14 mph87%29.42 "HgN/A
Weather by CustomWeather, © 2015

See weather overviewHow to use our weather pages